Meerawa, Australia

4:03 AM AEST on May 29, 2017 (GMT +1000)
Meerawa

Weather History for 94287 - October, 2011

Change the Weather History Date:

Friday, October 21, 2011

  Actual Average Record
Temperature  
Mean Temperature 75 °F -  
Max Temperature 80 °F 86 °F - ()
Min Temperature 70 °F 71 °F - ()
Cooling Degree Days 10    
Growing Degree Days 25 (Base 50)    
Moisture  
Dew Point 70 °F    
Average Humidity 84    
Maximum Humidity 94    
Minimum Humidity 60    
Precipitation  
Precipitation 0.55 in 0.11 in - ()
Sea Level Pressure  
Sea Level Pressure 29.98 in    
Wind  
Wind Speed 12 mph ()    
Max Wind Speed 20 mph    
Max Gust Speed -    
Visibility 5.7 miles    
Events Rain    
T = Trace of Precipitation, MM = Missing Value Source: Averaged Metar Reports

Daily Weather History Graph

Daily Weather History Graph

Search for Another Location

Airport or City:

Trip Planner

Search our weather history database for the weather conditions in past years. The results will help you decide how hot, cold, wet, or windy it might be!

Date:

Astronomy

Oct. 21, 2011 Rise Set
Actual Time 5:45 AM AEST 6:18 PM AEST
Civil Twilight 5:23 AM AEST 6:40 PM AEST
Nautical Twilight 4:57 AM AEST 7:06 PM AEST
Astronomical Twilight 4:31 AM AEST 7:32 PM AEST
Moon 12:58 AM AEST (10/21) 12:44 PM AEST (10/21)
Length of Visible Light 13h 17m
Length of Day
12h 32m
Last Quarter, 40% of the Moon is Illuminated
Oct 21
Last Quarter
Oct 27
New
Nov 3
First Quarter
Nov 11
Full
Nov 19
Last Quarter

Hourly Weather History & Observations

Time (AEST) Temp. Heat Index Dew Point Humidity Pressure Visibility Wind Dir Wind Speed Gust Speed Precip Events Conditions
12:00 AM 71 °F - 69 °F 90% 29.99 in 7 mi South 16.1 mph - - Rain Light Rain Showers
12:00 AM 71.6 °F - 68.0 °F 88% 29.98 in 5.0 mi South 16.1 mph - N/A Rain Light Rain Showers
12:30 AM 71.6 °F - 68.0 °F 88% 29.98 in 6.2 mi South 11.5 mph - N/A   Mostly Cloudy
1:00 AM 72 °F - 67 °F 78% 29.96 in - South 12.7 mph - -  
1:00 AM 71.6 °F - 66.2 °F 83% 29.95 in 6.2 mi South 12.7 mph - N/A   Scattered Clouds
1:30 AM 71.6 °F - 68.0 °F 88% 29.95 in 1.9 mi South 12.7 mph - N/A Rain Rain Showers
1:46 AM 71.6 °F - 68.0 °F 88% 29.95 in 5.6 mi South 12.7 mph - N/A   Mostly Cloudy
2:00 AM 71.6 °F - 68.0 °F 88% 29.92 in 5.0 mi South 13.8 mph - N/A Rain Light Rain Showers
2:30 AM 71.6 °F - 69.8 °F 94% 29.92 in 5.0 mi SSE 12.7 mph - N/A Rain Light Rain Showers
3:00 AM 72 °F - 68 °F 84% 29.93 in 7 mi South 11.5 mph - - Rain Light Rain Showers
3:00 AM 71.6 °F - 68.0 °F 88% 29.92 in 5.0 mi South 11.5 mph - N/A Rain Light Rain Showers
3:07 AM 71.6 °F - 69.8 °F 94% 29.92 in 2.5 mi South 11.5 mph - N/A Rain Rain Showers
3:30 AM 71.6 °F - 69.8 °F 94% 29.92 in 5.0 mi South 11.5 mph - N/A Rain Light Rain Showers
4:00 AM 72 °F - 69 °F 86% 29.94 in - South 12.7 mph - -  
4:00 AM 71.6 °F - 68.0 °F 88% 29.92 in 5.6 mi South 12.7 mph - N/A   Mostly Cloudy
4:12 AM 71.6 °F - 69.8 °F 94% 29.92 in 2.5 mi South 12.7 mph - N/A Rain Light Rain Showers
4:30 AM 71.6 °F - 69.8 °F 94% 29.92 in 5.6 mi South 10.4 mph - N/A   Mostly Cloudy
5:00 AM 71.6 °F - 69.8 °F 94% 29.95 in 5.6 mi South 12.7 mph - N/A Rain Light Rain Showers
5:30 AM 73.4 °F - 68.0 °F 83% 29.95 in 5.0 mi South 11.5 mph - N/A   Mostly Cloudy
6:00 AM 73 °F - 68 °F 81% 29.97 in 9 mi South 12.7 mph - - Rain Light Rain Showers
6:00 AM 73.4 °F - 68.0 °F 83% 29.98 in 6.2 mi South 12.7 mph - N/A   Mostly Cloudy
6:08 AM 73.4 °F - 68.0 °F 83% 29.98 in 2.5 mi South 12.7 mph - N/A Rain Light Rain Showers
6:30 AM 73.4 °F - 68.0 °F 83% 29.98 in 6.2 mi South 12.7 mph - N/A   Mostly Cloudy
7:00 AM 73 °F - 69 °F 84% 30.01 in - South 12.7 mph - -  
7:00 AM 73.4 °F - 69.8 °F 88% 30.01 in 6.2 mi South 12.7 mph - N/A   Mostly Cloudy
7:30 AM 73.4 °F - 69.8 °F 88% 30.01 in 6.2 mi South 12.7 mph - N/A   Mostly Cloudy
8:00 AM 73.4 °F - 69.8 °F 88% 30.01 in 6.2 mi South 10.4 mph - N/A   Mostly Cloudy
8:30 AM 75.2 °F - 71.6 °F 89% 30.01 in 6.2 mi South 10.4 mph - N/A   Mostly Cloudy
8:38 AM 75.2 °F - 69.8 °F 83% 30.04 in 3.7 mi South 11.5 mph - N/A Rain Light Rain Showers
8:41 AM 75.2 °F - 71.6 °F 89% 30.04 in 6.2 mi South 11.5 mph - N/A Rain Light Rain Showers
9:00 AM 75 °F - 71 °F 85% 30.03 in 12 mi South 10.4 mph - - Rain Light Rain Showers
9:00 AM 75.2 °F - 71.6 °F 89% 30.01 in 6.2 mi South 10.4 mph - N/A Rain Light Rain Showers
9:09 AM 75.2 °F - 71.6 °F 89% 30.01 in 3.7 mi South 10.4 mph - N/A Rain Light Rain Showers
9:30 AM 77.0 °F - 71.6 °F 83% 30.01 in 6.2 mi SSE 12.7 mph - N/A   Mostly Cloudy
10:00 AM 77 °F - 72 °F 79% 30.02 in - SE 12.7 mph - -  
10:00 AM 77.0 °F - 71.6 °F 83% 30.01 in 6.2 mi SE 12.7 mph - N/A   Mostly Cloudy
10:30 AM 78.8 °F - 71.6 °F 78% 30.01 in 6.2 mi SE 15.0 mph - N/A   Mostly Cloudy
11:00 AM 78.8 °F - 71.6 °F 78% 30.01 in 6.2 mi SE 16.1 mph - N/A   Mostly Cloudy
11:30 AM 78.8 °F - 69.8 °F 74% 30.01 in 6.2 mi SE 12.7 mph - N/A   Mostly Cloudy
12:00 PM 80 °F - 70 °F 63% 29.99 in 16 mi SE 16.1 mph - -   Partly Cloudy
12:00 PM 80.6 °F 83.9 °F 69.8 °F 70% 29.98 in 6.2 mi SE 16.1 mph - N/A   Mostly Cloudy
12:30 PM 80.6 °F 83.9 °F 69.8 °F 70% 29.98 in 6.2 mi SE 18.4 mph - N/A   Mostly Cloudy
1:00 PM 80 °F - 70 °F 63% 29.97 in - SE 18.4 mph - -  
1:00 PM 80.6 °F 83.9 °F 69.8 °F 70% 29.95 in 6.2 mi SE 18.4 mph - N/A Rain Light Rain Showers
1:30 PM 80.6 °F 84.6 °F 71.6 °F 74% 29.95 in 6.2 mi SE 18.4 mph - N/A Rain Light Rain Showers
2:00 PM 78.8 °F - 69.8 °F 74% 29.92 in 6.2 mi SE 19.6 mph - N/A   Mostly Cloudy
2:30 PM 80.6 °F 83.9 °F 69.8 °F 70% 29.92 in 6.2 mi SE 18.4 mph - N/A   Scattered Clouds
3:00 PM 80 °F - 69 °F 60% 29.93 in 16 mi SE 18.4 mph - -   Partly Cloudy
3:00 PM 80.6 °F 83.2 °F 68.0 °F 65% 29.92 in 6.2 mi SE 18.4 mph - N/A   Mostly Cloudy
3:30 PM 78.8 °F - 69.8 °F 74% 29.92 in 6.2 mi SE 17.3 mph - N/A   Mostly Cloudy
4:00 PM 79 °F - 70 °F 66% 29.94 in - SSE 12.7 mph - -  
4:00 PM 78.8 °F - 69.8 °F 74% 29.92 in 2.5 mi SSE 12.7 mph - N/A Rain Light Rain Showers
4:22 PM 77.0 °F - 73.4 °F 89% 29.92 in 6.2 mi SSE 10.4 mph - N/A   Scattered Clouds
4:30 PM 77.0 °F - 71.6 °F 83% 29.92 in 6.2 mi SE 13.8 mph - N/A   Scattered Clouds
5:00 PM 77.0 °F - 69.8 °F 78% 29.95 in 6.2 mi SE 15.0 mph - N/A   Scattered Clouds
5:30 PM 75.2 °F - 69.8 °F 83% 29.95 in 6.2 mi South 10.4 mph - N/A   Scattered Clouds
5:53 PM 75.2 °F - 71.6 °F 89% 29.98 in 2.5 mi SSE 9.2 mph - N/A Rain Light Rain Showers
6:00 PM 74 °F - 71 °F 88% 29.98 in 1 mi SE 10.4 mph - -   Overcast
6:00 PM 73.4 °F - 71.6 °F 94% 29.98 in 3.7 mi SE 10.4 mph - N/A Rain Light Rain Showers
6:19 PM 73.4 °F - 69.8 °F 88% 29.98 in 6.2 mi South 6.9 mph - N/A   Mostly Cloudy
6:30 PM 73.4 °F - 69.8 °F 88% 29.98 in 6.2 mi South 8.1 mph - N/A   Mostly Cloudy
7:00 PM 74 °F - 69 °F 81% 30.00 in - South 9.2 mph - -  
7:00 PM 75.2 °F - 69.8 °F 83% 29.98 in 6.2 mi South 9.2 mph - N/A   Mostly Cloudy
7:30 PM 73.4 °F - 69.8 °F 88% 29.98 in 6.2 mi South 10.4 mph - N/A   Mostly Cloudy
8:04 PM 73.4 °F - 69.8 °F 88% 30.01 in 1.9 mi South 11.5 mph - N/A Rain Light Rain Showers
8:19 PM 73.4 °F - 69.8 °F 88% 30.01 in 5.6 mi South 11.5 mph - N/A Rain Light Rain Showers
8:30 PM 73.4 °F - 69.8 °F 88% 30.01 in 5.6 mi South 10.4 mph - N/A Rain Light Rain Showers
9:00 PM 74 °F - 69 °F 81% 30.02 in 7 mi South 11.5 mph - - Rain Light Rain Showers
9:00 PM 73.4 °F - 69.8 °F 88% 30.01 in 5.0 mi South 11.5 mph - N/A Rain Light Rain Showers
9:07 PM 73.4 °F - 69.8 °F 88% 30.01 in 1.9 mi South 12.7 mph - N/A Rain Light Rain Showers
9:30 PM 73.4 °F - 69.8 °F 88% 30.01 in 5.6 mi South 11.5 mph - N/A Rain Light Rain Showers
10:00 PM 73 °F - 70 °F 87% 30.04 in - South 11.5 mph - -  
10:00 PM 73.4 °F - 69.8 °F 88% 30.04 in 5.6 mi South 11.5 mph - N/A Rain Light Rain Showers
10:30 PM 73.4 °F - 69.8 °F 88% 30.01 in 5.6 mi South 10.4 mph - N/A Rain Light Rain Showers
11:00 PM 73.4 °F - 69.8 °F 88% 30.01 in 5.6 mi South 11.5 mph - N/A Rain Light Rain Showers
11:07 PM 71.6 °F - 69.8 °F 94% 30.01 in 2.5 mi South 12.7 mph - N/A Rain Light Rain Showers
11:30 PM 71.6 °F - 69.8 °F 94% 30.01 in 2.5 mi South 11.5 mph - N/A Rain Rain Showers